Home > Time Zones > World Clock > Weather > Iran > Gorgan > Past weeks

Flag for Iran Weather past 2 weeks in Gorgan, Iran

Now
68 °F

More clouds than sun.


Feels Like: 68 °F
Forecast: 55 / 68 °F
Wind: 21 mph from Northwest

Location: Gorgan Airport


UV Index: 5 (Moderate)

Visibility: 4 mi


Pressure: 29.86 "Hg

Humidity: 69%

Dew point: 57 °F

Location of GorganLocation

Historic Weather in Gorgan

°F

Gorgan temperature yesterday

Maximum temperature yesterday: 77 °F (at 1:30 PM)
Minimum temperature yesterday: 57 °F (at 6:30 AM)
Average temperature yesterday: 66 °F

Past Weeks' High & Low Weather Summary

 TemperatureHumidityPressure
High88 °F (Apr 19, 2:30 PM)100% (Apr 11, 12:30 AM)30.27 "Hg (Apr 11, 12:30 AM)
Low48 °F (Apr 11, 12:30 AM)28% (Apr 18, 2:30 PM)29.74 "Hg (Apr 9, 4:30 AM)
Average63 °F78%30.00 "Hg
* Reported Apr 8 4:30 PM — Apr 23 4:30 PM, Gorgan, Weather by CustomWeather, © 2014

Note: Actual official high and low records may vary slightly from our data, if they occured in-between our weather recording intervals... More about our weather records

Advertising

Historic Weather Conditions — Data for Previous 24 hours

 ConditionsComfort  
Time TempWeatherWind HumidityBarometerVisibility
4:30 PM
Apr 23
73 °FPartly sunny.14 mph57%29.83 "Hg4 mi
4:00 PM73 °FPartly sunny.14 mph61%29.83 "Hg4 mi
3:30 PM73 °FPartly sunny.14 mph61%29.83 "Hg5 mi
3:00 PM73 °FPartly sunny.16 mph61%29.83 "Hg4 mi
2:30 PM77 °FPartly sunny.7 mph51%29.86 "Hg4 mi
1:30 PM77 °FPartly sunny.5 mph47%29.89 "Hg4 mi
1:00 PM77 °FPartly sunny.7 mph54%29.89 "Hg4 mi
12:30 PM75 °FPartly sunny.5 mph50%29.92 "Hg4 mi
11:30 AM73 °FPartly sunny.16 mph57%29.89 "Hg4 mi
10:30 AM72 °FPartly sunny.12 mph57%29.95 "Hg4 mi
10:00 AM72 °FPartly sunny.12 mph57%29.95 "Hg4 mi
9:30 AM68 °FBroken clouds.No wind60%30.01 "Hg4 mi
8:30 AM64 °FClear.7 mph73%30.01 "Hg4 mi
7:30 AM63 °FPassing clouds.9 mph83%30.01 "HgN/A
6:30 AM57 °FPartly cloudy.7 mph88%30.01 "HgN/A
5:30 AM61 °FPartly cloudy.9 mph83%30.01 "HgN/A
4:30 AM61 °FPassing clouds.12 mph88%30.01 "HgN/A
3:30 AM59 °FPassing clouds.9 mph94%29.95 "HgN/A
2:30 AM57 °FPassing clouds.7 mph94%29.89 "HgN/A
1:30 AM59 °FPassing clouds.No wind88%29.86 "HgN/A
12:30 AM59 °FPassing clouds.No wind88%29.89 "HgN/A
11:30 PM
Apr 22
59 °FPassing clouds.No wind94%29.92 "HgN/A
10:30 PM61 °FPassing clouds.No wind88%29.95 "HgN/A
9:30 PM61 °FPassing clouds.9 mph88%29.98 "HgN/A
9:00 PM63 °FScattered clouds.7 mph88%29.98 "HgN/A
8:30 PM63 °FScattered clouds.7 mph88%29.95 "HgN/A
7:30 PM64 °FScattered clouds.5 mph83%29.95 "HgN/A
6:30 PM68 °FScattered clouds.7 mph73%29.98 "HgN/A
6:00 PM68 °FScattered clouds.12 mph69%29.98 "HgN/A
5:30 PM68 °FThunderstorms. Scattered clouds.7 mph69%29.98 "HgN/A
5:00 PM70 °FBroken clouds.16 mph64%29.98 "HgN/A
Weather by CustomWeather, © 2014

See weather overview